Find Starlink 30771

NORAD ID: 58169 Int'l Des: 2023-166 Owner: SPXS Country: US Constellation: starlink operational
LEOCIRCULAR

当前视图

正在加载3D地球...

About Starlink 30771

Starlink 30771 (NORAD 58169) is a starlink constellation satellite (v2 mini) launched Oct 29, 2023 by SPXS of US. It operates in LEO, CIRCULAR orbit with a mass of 730.00 kg.

即将过境

Passes for default location (London). Set your location on the main map for personalized predictions.

高度历史

Loading altitude history...

两行轨道根数

1 58169U 23166V 26262.89919904 -.00001911 00000-0 -45482-4 0 9995
2 58169 53.1617 36.8264 0001208 77.4376 282.6762 15.34380351162924
Epoch: Sep 19, 2026 • Age: 22 hours

当前状态

高度 468.3 km
远地点 / 近地点 N/A
速度 7.64 km/s
星下点 52.30°N, 160.27°W
发射日期 Oct 29, 2023
运行时间 2.8 years
类型 internet

技术详情

分类 Payload
质量 730.00 kg
干质量 700.00 kg
长度 0.30 m
跨度 29.00 m
形状 ? Box + pan
制造商 SPXS
平台类型 Starlink V2M
阶段状态 In Orbit
所有者/国家 SPXS/US

Most Searched